Torna al catalogo

ATLAS 5 CENTAUR DEB

AttivoHEO
NORAD 43985·DEBRIS·🇺🇸 United States

Lanciato Sep 17, 2014 da Cape Canaveral Space Force Station

Loading…

Prossimi Passaggi (prossime 24 ore)

TLE

AggiornatoSource: Space-Track

Epoca: Sep 8, 2026, 06:48 UTC

1 43985U 14055AQ  26251.28398973 -.00000031  00000-0  00000-0 0  9994
2 43985  19.0725 166.4591 4763657 119.0230 296.5520  1.76721536 13495

Traccia ATLAS 5 CENTAUR DEB in tempo reale con AllMySat

Download on the App Store